Zurück zum Katalog

SKYSAT C5

AktivWissenschaftSSO
NORAD 41772·PAYLOAD·🇺🇸 United States

Gestartet Sep 16, 2016 von Guiana Space Centre

Loading…

Nächste Überflüge (nächste 24 Stunden)

TLE

AktuellSource: CelesTrak SupGP

Epoche: Sep 14, 2026, 14:49 UTC

1 41772C 16058C   26257.61777778  .00000342  00000+0  10372-4 0  2575
2 41772  97.0396 294.1849 0001334  24.0886 117.4384 15.34203259    16

Verfolge SKYSAT C5 in Echtzeit mit AllMySat

Download on the App Store